CW4957 Weather Reports


Display with metric or nautical units.
time (UTC)temp
F
wind
direction
speed
MPH
gust
MPH
rain 1hr
in
rain 24hr
in
rain mn
in
humidity
%
barometer
mb
20260502190253 55 360 0.0 2.0 0.00 0.26 0.26 62 1009.0
20260502185751 55 360 1.0 7.0 0.00 0.26 0.26 62 1009.3
20260502185314 55 360 2.0 7.0 0.00 0.26 0.26 61 1009.3
20260502184808 55 360 2.0 7.0 0.00 0.26 0.26 61 1009.3
20260502184308 55 360 3.0 7.0 0.00 0.26 0.26 63 1009.3
20260502183750 55 360 0.0 1.0 0.00 0.26 0.26 67 1009.3
20260502183308 55 360 0.0 3.0 0.00 0.26 0.26 66 1009.3
20260502182805 55 360 1.0 3.0 0.00 0.26 0.26 66 1009.3
20260502182305 55 360 1.0 5.0 0.00 0.26 0.26 67 1009.4
20260502181802 55 360 2.0 5.0 0.00 0.26 0.26 67 1009.4
20260502181300 54 360 2.0 7.0 0.00 0.26 0.26 69 1009.4
20260502180753 54 360 1.0 4.0 0.00 0.26 0.26 70 1009.5
20260502180310 54 360 2.0 5.0 0.00 0.26 0.26 71 1009.5
20260502170258 52 360 0.0 3.0 0.00 0.26 0.26 92 1009.7
20260502164306 51 360 0.0 0.0 0.00 0.26 0.26 93 1009.8
20260502163802 50 360 0.0 0.0 0.00 0.26 0.26 93 1009.9
20260502163258 50 360 0.0 0.0 0.00 0.26 0.26 93 1009.9
20260502162832 50 171 0.0 0.0 0.00 0.26 0.26 93 1009.9
20260502162254 50 171 0.0 1.0 0.00 0.26 0.26 93 1010.0
20260502161753 50 171 0.0 2.0 0.00 0.26 0.26 93 1010.0
20260502161253 50 171 1.0 2.0 0.00 0.26 0.26 93 1010.1
20260502160810 50 171 1.0 3.0 0.00 0.26 0.26 93 1010.1
20260502160318 50 171 0.0 3.0 0.00 0.26 0.26 93 1010.1
20260502151758 50 284 1.0 2.0 0.05 0.26 0.26 93 1010.3
20260502151300 50 286 0.0 1.0 0.05 0.26 0.26 93 1010.3
20260502150801 50 286 0.0 1.0 0.05 0.26 0.26 93 1010.4
20260502150314 50 286 0.0 0.0 0.05 0.26 0.26 93 1010.4
20260502130259 48 288 1.0 2.0 0.00 0.21 0.21 95 1010.8
20260502123300 47 288 1.0 2.0 0.00 0.21 0.21 94 1010.9
20260502122803 47 289 0.0 1.0 0.00 0.21 0.21 94 1010.9
20260502122253 47 289 0.0 2.0 0.00 0.21 0.21 94 1011.0
20260502121813 47 294 0.0 2.0 0.00 0.21 0.21 94 1011.0
20260502121306 47 302 1.0 2.0 0.00 0.21 0.21 94 1011.0
20260502120827 47 302 0.0 1.0 0.00 0.21 0.21 94 1010.9
20260502120257 46 302 0.0 1.0 0.00 0.21 0.21 94 1010.9
20260502115751 46 302 0.0 1.0 0.00 0.21 0.21 94 1011.0
20260502115249 46 302 0.0 1.0 0.00 0.21 0.21 94 1011.0
20260502114807 46 132 0.0 1.0 0.00 0.21 0.21 94 1011.0
20260502113757 46 132 0.0 0.0 0.02 0.21 0.21 94 1011.0
20260502113309 46 132 0.0 0.0 0.03 0.21 0.21 93 1011.0
20260502112810 46 132 0.0 0.0 0.03 0.21 0.21 93 1011.0
20260502112251 46 132 0.0 0.0 0.03 0.21 0.21 93 1010.8
20260502111755 46 132 0.0 0.0 0.03 0.21 0.21 93 1010.8
20260502111255 46 132 0.0 0.0 0.03 0.21 0.21 93 1010.5
20260502110758 46 132 0.0 0.0 0.03 0.21 0.21 93 1010.5
20260502110252 46 132 0.0 0.0 0.03 0.21 0.21 93 1010.5
20260502105752 46 132 0.0 0.0 0.03 0.21 0.21 93 1010.6
20260502105251 46 132 0.0 0.0 0.03 0.21 0.21 93 1010.6
20260502104749 46 132 0.0 0.0 0.02 0.20 0.20 93 1010.6
20260502104311 46 132 0.0 0.0 0.02 0.20 0.20 93 1010.6
20260502103806 46 132 0.0 1.0 0.01 0.19 0.19 93 1010.6
20260502103306 46 132 0.0 1.0 0.01 0.18 0.18 93 1010.6
20260502102830 46 132 0.0 0.0 0.01 0.18 0.18 93 1010.6
20260502102309 46 132 0.0 0.0 0.01 0.18 0.18 93 1010.1
20260502101807 46 132 0.0 0.0 0.01 0.18 0.18 93 1010.1
20260502101301 46 132 0.0 0.0 0.01 0.18 0.18 93 1010.1
20260502100758 46 132 0.0 0.0 0.01 0.18 0.18 93 1010.2
20260502100251 46 132 0.0 0.0 0.02 0.18 0.18 93 1010.2
20260502091309 46 105 2.0 3.0 0.07 0.17 0.17 92 1010.4
20260502090752 46 42 0.0 0.0 0.07 0.17 0.17 92 1010.6
20260502090247 46 42 0.0 0.0 0.06 0.16 0.16 92 1010.6
20260502071251 47 42 0.0 0.0 0.04 0.06 0.06 88 1010.7
20260502070809 47 42 0.0 0.0 0.02 0.04 0.04 88 1010.7
20260502070318 47 42 0.0 0.0 0.01 0.03 0.03 88 1010.7
20260502065757 47 42 0.0 0.0 0.00 0.02 0.02 87 1010.7
20260502065301 47 42 0.0 0.0 0.00 0.02 0.02 87 1010.5
20260502064818 47 42 0.0 0.0 0.01 0.02 0.02 87 1010.5
20260502064253 47 42 0.0 0.0 0.01 0.02 0.02 87 1010.5
20260502063752 47 42 0.0 0.0 0.01 0.02 0.02 87 1010.5
20260502063307 47 42 0.0 0.0 0.01 0.02 0.02 86 1010.5
20260502062801 47 42 0.0 0.0 0.01 0.02 0.02 85 1010.5
20260502062258 47 42 0.0 0.0 0.01 0.02 0.02 85 1010.8
20260502061815 47 42 0.0 0.0 0.02 0.02 0.02 84 1010.8
20260502061257 47 42 0.0 0.0 0.02 0.02 0.02 84 1010.8
20260502060759 47 42 0.0 1.0 0.02 0.02 0.02 84 1010.5
20260502060254 48 42 1.0 1.0 0.02 0.02 0.02 83 1010.5
20260502055753 48 42 0.0 0.0 0.02 0.02 0.02 82 1010.8
20260502055309 48 42 0.0 0.0 0.01 0.01 0.01 82 1010.8
20260502054807 48 42 0.0 0.0 0.01 0.01 0.01 81 1010.8
20260502054308 48 42 0.0 0.0 0.01 0.01 0.01 80 1010.8
20260502053806 48 42 0.0 0.0 0.01 0.01 0.01 80 1011.0
20260502053305 48 42 0.0 0.0 0.01 0.01 0.01 79 1011.0
20260502052804 49 42 0.0 0.0 0.01 0.01 0.01 78 1011.0
20260502052306 49 42 0.0 0.0 0.01 0.01 0.01 78 1011.0
20260502051806 49 42 0.0 0.0 0.00 0.00 0.00 76 1011.0
20260502051308 49 42 0.0 0.0 0.00 0.00 0.00 74 1011.0
20260502050809 49 42 0.0 0.0 0.00 0.00 0.00 74 1010.8
20260502050301 49 42 0.0 0.0 0.00 0.00 0.00 73 1010.8
20260502045800 49 42 0.0 0.0 0.00 0.00 0.00 73 1010.8
20260502045316 50 42 0.0 0.0 0.00 0.00 0.00 73 1010.8
20260502044823 50 42 0.0 1.0 0.00 0.00 0.00 72 1010.8
20260502044330 50 42 0.0 2.0 0.00 0.00 0.00 71 1010.8
20260502043810 50 42 1.0 2.0 0.00 0.00 0.00 71 1010.7
20260502043331 50 42 0.0 0.0 0.00 0.00 0.00 69 1010.7
20260502042800 50 42 0.0 0.0 0.00 0.00 0.00 67 1010.7
20260502042258 50 42 0.0 0.0 0.00 0.00 0.00 67 1010.4
20260502041820 50 42 0.0 0.0 0.00 0.00 0.00 66 1010.4
20260502041316 50 42 0.0 0.0 0.00 0.00 0.00 65 1010.4
20260502040754 50 42 0.0 0.0 0.00 0.00 0.00 65 1010.4
20260502040309 50 42 0.0 0.0 0.00 0.00 0.00 65 1010.4
20260502035807 50 42 0.0 0.0 0.00 0.00 0.00 65 1010.4
20260502035306 50 42 0.0 0.0 0.00 0.00 0.00 65 1010.4
20260502034802 50 42 0.0 0.0 0.00 0.00 0.00 65 1010.4
20260502034317 50 42 0.0 0.0 0.00 0.00 0.00 65 1010.3
20260502033754 50 42 0.0 0.0 0.00 0.00 0.00 65 1010.3
20260502033308 50 42 0.0 0.0 0.00 0.00 0.00 64 1010.3
20260502032828 50 42 0.0 0.0 0.00 0.00 0.00 64 1010.3
20260502032307 50 42 0.0 0.0 0.00 0.00 0.00 64 1010.4
20260502031807 50 42 0.0 0.0 0.00 0.00 0.00 63 1010.4
20260502031304 50 42 0.0 0.0 0.00 0.00 0.00 63 1010.4
20260502030822 50 42 0.0 0.0 0.00 0.00 0.00 62 1010.1
20260502030253 51 42 0.0 0.0 0.00 0.00 0.00 62 1010.1
20260502025753 51 42 0.0 0.0 0.00 0.00 0.00 62 1010.1
20260502025255 51 42 0.0 0.0 0.00 0.00 0.00 62 1010.1
20260502024755 51 42 0.0 0.0 0.00 0.00 0.00 60 1010.1
20260502024253 51 42 0.0 0.0 0.00 0.00 0.00 60 1010.1
20260502023810 51 42 0.0 0.0 0.00 0.00 0.00 59 1010.1
20260502023252 51 42 0.0 0.0 0.00 0.00 0.00 59 1010.1
20260502022751 51 42 0.0 0.0 0.00 0.00 0.00 57 1010.0
20260502022306 51 42 0.0 0.0 0.00 0.00 0.00 56 1010.0
20260502021808 52 42 0.0 0.0 0.00 0.00 0.00 56 1010.0
20260502021303 52 42 0.0 0.0 0.00 0.00 0.00 56 1010.0
20260502020805 52 42 0.0 0.0 0.00 0.00 0.00 57 1010.1
20260502020257 52 42 0.0 0.0 0.00 0.00 0.00 56 1010.1
20260502015800 52 42 0.0 0.0 0.00 0.00 0.00 54 1010.1
20260502015259 53 42 0.0 0.0 0.00 0.00 0.00 53 1010.0
20260502014756 53 42 0.0 0.0 0.00 0.00 0.00 52 1010.0
20260502014253 53 42 0.0 0.0 0.00 0.00 0.00 50 1010.0
20260502013751 53 42 0.0 0.0 0.00 0.00 0.00 49 1010.0
20260502013331 54 42 0.0 0.0 0.00 0.00 0.00 49 1010.0
20260502012750 54 42 0.0 0.0 0.00 0.00 0.00 48 1009.9
20260502012252 54 42 0.0 0.0 0.00 0.00 0.00 48 1009.9
20260502011750 55 42 0.0 0.0 0.00 0.00 0.00 47 1009.9
20260502011253 55 44 0.0 0.0 0.00 0.00 0.00 47 1009.8
20260502010748 55 360 0.0 0.0 0.00 0.00 0.00 47 1009.8
20260502010304 56 360 0.0 0.0 0.00 0.00 0.00 47 1009.8
20260502005801 56 360 0.0 0.0 0.00 0.00 0.00 46 1009.8
20260502005308 56 360 0.0 0.0 0.00 0.00 0.00 46 1009.7
20260502004803 56 360 0.0 0.0 0.00 0.00 0.00 45 1009.7
20260502004301 56 360 0.0 0.0 0.00 0.00 0.00 46 1009.7
20260502003758 56 360 0.0 0.0 0.00 0.00 0.00 44 1009.5
20260502003318 56 360 0.0 0.0 0.00 0.00 0.00 45 1009.5
20260502002755 57 360 0.0 0.0 0.00 0.00 0.00 45 1009.4
20260502002251 57 360 0.0 0.0 0.00 0.00 0.00 44 1009.4
20260502001753 57 360 0.0 0.0 0.00 0.00 0.00 43 1009.4
20260502001255 57 360 0.0 0.0 0.00 0.00 0.00 43 1009.2
20260502000800 58 360 0.0 0.0 0.00 0.00 0.00 42 1009.2
20260502000255 58 360 0.0 0.0 0.00 0.00 0.00 42 1009.2
20260501235759 58 360 0.0 0.0 0.00 0.00 0.00 40 1009.2
20260501235255 59 360 0.0 0.0 0.00 0.00 0.00 40 1008.9
20260501234751 59 360 0.0 0.0 0.00 0.00 0.00 39 1008.9
20260501234307 59 360 0.0 0.0 0.00 0.00 0.00 38 1008.9
20260501233808 59 360 0.0 1.0 0.00 0.00 0.00 37 1008.8
20260501233307 59 360 0.0 1.0 0.00 0.00 0.00 37 1008.8
20260501232804 60 360 0.0 2.0 0.00 0.00 0.00 36 1008.8
20260501232308 60 360 0.0 2.0 0.00 0.00 0.00 36 1008.5
20260501231811 60 360 0.0 2.0 0.00 0.00 0.00 35 1008.5
20260501231326 60 360 0.0 2.0 0.00 0.00 0.00 35 1008.5
20260501230803 61 360 0.0 1.0 0.00 0.00 0.00 35 1008.4
20260501230300 61 360 0.0 2.0 0.00 0.00 0.00 35 1008.4
20260501225802 61 360 1.0 3.0 0.00 0.00 0.00 34 1008.4
20260501225251 61 360 2.0 3.0 0.00 0.00 0.00 33 1008.3
20260501224810 62 360 1.0 3.0 0.00 0.00 0.00 32 1008.3
20260501224254 62 360 0.0 2.0 0.00 0.00 0.00 32 1008.2
20260501223753 62 360 1.0 3.0 0.00 0.00 0.00 32 1008.2
20260501223310 62 360 1.0 4.0 0.00 0.00 0.00 32 1008.2
20260501222805 63 360 1.0 4.0 0.00 0.00 0.00 30 1008.2
20260501222305 63 360 1.0 4.0 0.00 0.00 0.00 30 1008.1
20260501221820 63 360 0.0 3.0 0.00 0.00 0.00 31 1008.1
20260501221259 63 360 1.0 3.0 0.00 0.00 0.00 29 1008.1
20260501220800 64 360 1.0 2.0 0.00 0.00 0.00 29 1008.3
20260501220331 64 360 1.0 4.0 0.00 0.00 0.00 28 1008.3
20260501215805 64 360 1.0 4.0 0.00 0.00 0.00 28 1008.3
20260501215259 64 208 1.0 5.0 0.00 0.00 0.00 29 1008.3
20260501214759 64 19 0.0 5.0 0.00 0.00 0.00 29 1008.3
20260501214310 64 244 1.0 7.0 0.00 0.00 0.00 28 1008.3
20260501213800 64 279 1.0 7.0 0.00 0.00 0.00 28 1008.2
20260501213259 64 56 2.0 5.0 0.00 0.00 0.00 28 1008.2
20260501212811 64 280 1.0 4.0 0.00 0.00 0.00 30 1008.2
20260501212258 64 265 1.0 4.0 0.00 0.00 0.00 30 1008.0
20260501211808 64 217 2.0 4.0 0.00 0.00 0.00 31 1008.0
20260501211316 63 360 2.0 6.0 0.00 0.00 0.00 30 1008.0
20260501210318 63 360 1.0 2.0 0.00 0.00 0.00 31 1007.9
20260501205751 63 360 1.0 2.0 0.00 0.00 0.00 32 1007.8
20260501205405 63 360 0.0 3.0 0.00 0.00 0.00 31 1007.8
20260501204804 63 360 2.0 7.0 0.00 0.00 0.00 31 1007.8
20260501204305 64 360 3.0 7.0 0.00 0.00 0.00 31 1007.8
20260501203807 64 360 1.0 9.0 0.00 0.00 0.00 32 1007.9
20260501203307 64 360 2.0 6.0 0.00 0.00 0.00 31 1007.9
20260501202805 64 360 3.0 8.0 0.00 0.00 0.00 31 1007.9
20260501202306 64 360 2.0 8.0 0.00 0.00 0.00 32 1007.8
20260501201756 64 360 2.0 5.0 0.00 0.00 0.00 33 1007.8
20260501201255 63 212 2.0 4.0 0.00 0.00 0.00 32 1007.8
20260501200753 63 360 1.0 3.0 0.00 0.00 0.00 34 1007.8
20260501200309 63 43 0.0 4.0 0.00 0.00 0.00 33 1007.8
20260501195816 63 360 2.0 4.0 0.00 0.00 0.00 33 1007.9
20260501195257 64 360 1.0 6.0 0.00 0.00 0.00 32 1007.9
20260501194752 64 24 3.0 6.0 0.00 0.00 0.00 31 1007.9
20260501194254 64 201 2.0 4.0 0.00 0.00 0.00 31 1008.1
20260501193807 65 360 1.0 5.0 0.00 0.00 0.00 31 1008.1
20260501193303 65 46 2.0 5.0 0.00 0.00 0.00 29 1008.1
20260501192805 65 360 1.0 5.0 0.00 0.00 0.00 30 1008.1
20260501192306 66 51 2.0 5.0 0.00 0.00 0.00 30 1008.3
20260501191806 66 173 2.0 5.0 0.00 0.00 0.00 31 1008.3
20260501191304 65 232 1.0 4.0 0.00 0.00 0.00 33 1008.3
20260501190802 65 215 2.0 7.0 0.00 0.00 0.00 33 1008.4